VLG1735 LEBA-LEBL

Flight info

Callsign VLG1735
Flight time 1h 16m
Altitude 38000
Route ALCOL N747 TOSTO DCT OLPOS DCT BEGOX DCT VLC L34 CASIM DCT MATEX
Aircraft A320/M-SDE3FGHIRWY/LB1

Departure

Time 2026-05-05 15:09
Airport Córdoba Airport (LEBA)

Arrival

Time 2026-05-05 16:25
Airport Josep Tarradellas Barcelona-El Prat Airport (LEBL)
Time Latitude Longitude Altitude Speed Heading
2026-05-05 14:30 37.84499 -4.84424 305 ft 0 kts 231°
2026-05-05 15:04 37.84496 -4.84428 305 ft 2 kts 226°
2026-05-05 15:04 37.84474 -4.84443 306 ft 5 kts 211°
2026-05-05 15:04 37.84477 -4.84489 306 ft 8 kts 301°
2026-05-05 15:05 37.84566 -4.84633 303 ft 13 kts 358°
2026-05-05 15:05 37.84643 -4.84580 302 ft 12 kts 30°
2026-05-05 15:05 37.84715 -4.84529 302 ft 11 kts 29°
2026-05-05 15:06 37.84785 -4.84480 300 ft 12 kts 29°
2026-05-05 15:06 37.84861 -4.84427 298 ft 13 kts 29°
2026-05-05 15:06 37.84935 -4.84375 299 ft 11 kts 29°
2026-05-05 15:06 37.85013 -4.84322 301 ft 16 kts 28°
2026-05-05 15:07 37.85105 -4.84248 301 ft 16 kts 49°
2026-05-05 15:07 37.85156 -4.84156 302 ft 9 kts 36°
2026-05-05 15:07 37.85194 -4.84175 303 ft 6 kts 283°
2026-05-05 15:07 37.85162 -4.84217 302 ft 3 kts 209°
2026-05-05 15:08 37.84939 -4.84372 298 ft 74 kts 208°
2026-05-05 15:09 37.84297 -4.84820 304 ft 134 kts 209°
2026-05-05 15:09 37.83395 -4.85466 684 ft 149 kts 209°
2026-05-05 15:09 37.82491 -4.86106 1374 ft 153 kts 210°
2026-05-05 15:09 37.81537 -4.86769 2002 ft 158 kts 212°
2026-05-05 15:10 37.80534 -4.87453 2512 ft 170 kts 212°
2026-05-05 15:10 37.79440 -4.88216 2890 ft 189 kts 211°
2026-05-05 15:10 37.78237 -4.89070 3287 ft 210 kts 211°
2026-05-05 15:10 37.76919 -4.90001 3882 ft 222 kts 211°
2026-05-05 15:11 37.75548 -4.90916 4732 ft 225 kts 204°
2026-05-05 15:11 37.73995 -4.91268 5537 ft 233 kts 175°
2026-05-05 15:11 37.72472 -4.90500 6230 ft 246 kts 139°
2026-05-05 15:11 37.71526 -4.88702 6903 ft 251 kts 103°
2026-05-05 15:12 37.71475 -4.86520 7634 ft 251 kts 71°
2026-05-05 15:12 37.72237 -4.84566 8388 ft 250 kts 52°
2026-05-05 15:12 37.73040 -4.82584 9064 ft 262 kts 74°
2026-05-05 15:12 37.73031 -4.80275 9777 ft 268 kts 103°
2026-05-05 15:13 37.72391 -4.78057 10524 ft 270 kts 115°
2026-05-05 15:13 37.71547 -4.75934 11288 ft 271 kts 118°
2026-05-05 15:13 37.70661 -4.73820 12009 ft 274 kts 119°
2026-05-05 15:13 37.69776 -4.71666 12676 ft 280 kts 114°
2026-05-05 15:14 37.69340 -4.69254 13311 ft 287 kts 88°
2026-05-05 15:14 37.69775 -4.66810 13847 ft 292 kts 60°
2026-05-05 15:14 37.71046 -4.64780 14057 ft 303 kts 32°
2026-05-05 15:14 37.72834 -4.63223 14222 ft 324 kts 28°
2026-05-05 15:15 37.74767 -4.61568 14369 ft 347 kts 30°
2026-05-05 15:15 37.76804 -4.59787 14684 ft 363 kts 30°
2026-05-05 15:15 37.78888 -4.57932 15247 ft 369 kts 31°
2026-05-05 15:15 37.80995 -4.56041 15862 ft 374 kts 31°
2026-05-05 15:16 37.83093 -4.54137 16477 ft 379 kts 33°
2026-05-05 15:16 37.85030 -4.51809 17095 ft 390 kts 46°
2026-05-05 15:16 37.86553 -4.48932 17719 ft 399 kts 60°
2026-05-05 15:16 37.87714 -4.45712 18310 ft 405 kts 64°
2026-05-05 15:17 37.88834 -4.42413 18828 ft 410 kts 65°
2026-05-05 15:17 37.89945 -4.39066 19364 ft 414 kts 65°
2026-05-05 15:17 37.91056 -4.35685 19926 ft 418 kts 65°
2026-05-05 15:17 37.92178 -4.32275 20479 ft 421 kts 65°
2026-05-05 15:18 37.93316 -4.28843 21032 ft 424 kts 64°
2026-05-05 15:18 37.94471 -4.25386 21589 ft 428 kts 64°
2026-05-05 15:18 37.95637 -4.21901 22136 ft 431 kts 64°
2026-05-05 15:18 37.96810 -4.18390 22681 ft 435 kts 64°
2026-05-05 15:19 37.97990 -4.14845 23215 ft 438 kts 64°
2026-05-05 15:19 37.99178 -4.11271 23699 ft 441 kts 64°
2026-05-05 15:19 38.00374 -4.07671 24106 ft 445 kts 64°
2026-05-05 15:19 38.01583 -4.04034 24515 ft 449 kts 64°
2026-05-05 15:20 38.02800 -4.00363 24892 ft 454 kts 64°
2026-05-05 15:20 38.04028 -3.96657 25274 ft 458 kts 64°
2026-05-05 15:20 38.05266 -3.92918 25642 ft 462 kts 64°
2026-05-05 15:20 38.06510 -3.89147 26009 ft 466 kts 65°
2026-05-05 15:21 38.07763 -3.85338 26372 ft 469 kts 65°
2026-05-05 15:21 38.09006 -3.81552 26723 ft 473 kts 65°
2026-05-05 15:21 38.10277 -3.77677 27047 ft 477 kts 65°
2026-05-05 15:21 38.11557 -3.73777 27383 ft 481 kts 65°
2026-05-05 15:22 38.12848 -3.69843 27721 ft 484 kts 65°
2026-05-05 15:22 38.14147 -3.65875 28064 ft 489 kts 65°
2026-05-05 15:22 38.15316 -3.61780 28327 ft 496 kts 72°
2026-05-05 15:22 38.16111 -3.57487 28620 ft 501 kts 77°
2026-05-05 15:23 38.16840 -3.53144 28937 ft 505 kts 77°
2026-05-05 15:23 38.17573 -3.48766 29270 ft 508 kts 77°
2026-05-05 15:23 38.18310 -3.44361 29568 ft 511 kts 77°
2026-05-05 15:23 38.19053 -3.39928 29848 ft 515 kts 77°
2026-05-05 15:24 38.19804 -3.35456 30103 ft 519 kts 77°
2026-05-05 15:24 38.20558 -3.30957 30371 ft 521 kts 77°
2026-05-05 15:24 38.21312 -3.26439 30643 ft 523 kts 77°
2026-05-05 15:24 38.22064 -3.21908 30918 ft 525 kts 77°
2026-05-05 15:25 38.22819 -3.17352 31185 ft 527 kts 77°
2026-05-05 15:25 38.23574 -3.12790 31440 ft 528 kts 78°
2026-05-05 15:25 38.24325 -3.08225 31770 ft 527 kts 78°
2026-05-05 15:25 38.25072 -3.03667 32125 ft 526 kts 78°
2026-05-05 15:26 38.25808 -2.99182 32472 ft 525 kts 78°
2026-05-05 15:26 38.26550 -2.94644 32840 ft 523 kts 78°
2026-05-05 15:26 38.27289 -2.90113 33218 ft 522 kts 78°
2026-05-05 15:26 38.28028 -2.85592 33605 ft 521 kts 78°
2026-05-05 15:27 38.28763 -2.81081 33968 ft 520 kts 78°
2026-05-05 15:27 38.29491 -2.76583 34285 ft 519 kts 79°
2026-05-05 15:27 38.30215 -2.72088 34592 ft 518 kts 78°
2026-05-05 15:27 38.30937 -2.67601 34877 ft 517 kts 78°
2026-05-05 15:28 38.31656 -2.63126 35182 ft 515 kts 79°
2026-05-05 15:28 38.32373 -2.58659 35496 ft 514 kts 79°
2026-05-05 15:28 38.33084 -2.54206 35785 ft 513 kts 79°
2026-05-05 15:28 38.33790 -2.49757 36016 ft 512 kts 79°
2026-05-05 15:29 38.34493 -2.45315 36299 ft 511 kts 79°
2026-05-05 15:29 38.35194 -2.40882 36520 ft 511 kts 79°
2026-05-05 15:29 38.35855 -2.36445 36792 ft 509 kts 83°
2026-05-05 15:29 38.36123 -2.31965 37006 ft 506 kts 91°
2026-05-05 15:30 38.36158 -2.27480 37198 ft 506 kts 91°
2026-05-05 15:30 38.36194 -2.22997 37370 ft 506 kts 91°
2026-05-05 15:30 38.36234 -2.18518 37578 ft 506 kts 91°
2026-05-05 15:30 38.36272 -2.14039 37794 ft 505 kts 91°
2026-05-05 15:31 38.36308 -2.09562 37935 ft 505 kts 91°
2026-05-05 15:31 38.36504 -2.00634 37956 ft 504 kts 83°
2026-05-05 15:32 38.38315 -1.92048 37935 ft 502 kts 63°
2026-05-05 15:32 38.41984 -1.84579 37928 ft 495 kts 48°
2026-05-05 15:33 38.46241 -1.77674 37932 ft 495 kts 49°
2026-05-05 15:33 38.50482 -1.70747 37925 ft 495 kts 49°
2026-05-05 15:34 38.54693 -1.63856 37928 ft 495 kts 49°
2026-05-05 15:34 38.58959 -1.56857 37925 ft 496 kts 49°
2026-05-05 15:35 38.63166 -1.49945 37900 ft 496 kts 49°
2026-05-05 15:35 38.67392 -1.42977 37944 ft 496 kts 49°
2026-05-05 15:36 38.71624 -1.36012 37935 ft 495 kts 49°
2026-05-05 15:36 38.75844 -1.29036 37934 ft 495 kts 49°
2026-05-05 15:37 38.80054 -1.22050 37921 ft 495 kts 49°
2026-05-05 15:37 38.84262 -1.15061 37926 ft 495 kts 49°
2026-05-05 15:38 38.88474 -1.08062 37912 ft 496 kts 49°
2026-05-05 15:38 38.92691 -1.01042 37911 ft 497 kts 50°
2026-05-05 15:39 38.96906 -0.94002 37904 ft 497 kts 50°
2026-05-05 15:39 39.01119 -0.86941 37887 ft 498 kts 50°
2026-05-05 15:40 39.05440 -0.79988 37885 ft 495 kts 42°
2026-05-05 15:40 39.10762 -0.74552 37866 ft 484 kts 24°
2026-05-05 15:41 39.16646 -0.70487 37869 ft 484 kts 22°
2026-05-05 15:41 39.22627 -0.66358 37862 ft 486 kts 22°
2026-05-05 15:42 39.28585 -0.62229 37868 ft 487 kts 22°
2026-05-05 15:42 39.34515 -0.58112 37868 ft 488 kts 22°
2026-05-05 15:43 39.40534 -0.53925 37891 ft 489 kts 23°
2026-05-05 15:43 39.46483 -0.49767 37885 ft 490 kts 23°
2026-05-05 15:44 39.52416 -0.45383 37883 ft 493 kts 27°
2026-05-05 15:44 39.58178 -0.40537 37913 ft 495 kts 29°
2026-05-05 15:45 39.63896 -0.35569 37910 ft 495 kts 29°
2026-05-05 15:45 39.69653 -0.30685 37905 ft 494 kts 28°
2026-05-05 15:46 39.75445 -0.25877 37900 ft 494 kts 28°
2026-05-05 15:46 39.81236 -0.21064 37946 ft 494 kts 28°
2026-05-05 15:47 39.87016 -0.16226 37937 ft 494 kts 28°
2026-05-05 15:47 39.92777 -0.11367 37929 ft 493 kts 28°
2026-05-05 15:48 39.98538 -0.06503 37870 ft 496 kts 28°
2026-05-05 15:48 40.01463 -0.04038 37225 ft 505 kts 28°
2026-05-05 15:48 40.04418 -0.01546 36560 ft 505 kts 28°
2026-05-05 15:48 40.06362 0.00097 36158 ft 503 kts 28°
2026-05-05 15:49 40.10281 0.03417 35378 ft 501 kts 28°
2026-05-05 15:49 40.12213 0.05058 34995 ft 499 kts 28°
2026-05-05 15:49 40.15124 0.07533 34391 ft 499 kts 28°
2026-05-05 15:49 40.18033 0.10006 33752 ft 499 kts 28°
2026-05-05 15:50 40.20947 0.12445 33122 ft 494 kts 24°
2026-05-05 15:50 40.23986 0.14431 32576 ft 483 kts 14°
2026-05-05 15:50 40.27120 0.15820 32144 ft 471 kts
2026-05-05 15:50 40.30269 0.16999 31623 ft 469 kts
2026-05-05 15:51 40.33391 0.18168 31159 ft 465 kts
2026-05-05 15:51 40.36490 0.19331 30679 ft 461 kts
2026-05-05 15:51 40.39563 0.20486 30232 ft 458 kts
2026-05-05 15:51 40.42617 0.21635 29737 ft 456 kts
2026-05-05 15:52 40.45659 0.22782 29199 ft 453 kts
2026-05-05 15:52 40.48679 0.23920 28735 ft 450 kts
2026-05-05 15:52 40.51671 0.25105 28214 ft 451 kts 13°
2026-05-05 15:52 40.54539 0.26841 27704 ft 457 kts 25°
2026-05-05 15:53 40.57155 0.29235 27203 ft 461 kts 37°
2026-05-05 15:53 40.59423 0.32213 26711 ft 461 kts 47°
2026-05-05 15:53 40.61520 0.35390 26228 ft 458 kts 47°
2026-05-05 15:53 40.63604 0.38538 25736 ft 455 kts 47°
2026-05-05 15:54 40.65577 0.41784 25260 ft 454 kts 59°
2026-05-05 15:54 40.66825 0.45546 24926 ft 443 kts 79°
2026-05-05 15:54 40.67096 0.49491 24667 ft 426 kts 96°
2026-05-05 15:54 40.67052 0.53303 24432 ft 419 kts 96°
2026-05-05 15:55 40.67010 0.57120 24192 ft 415 kts 96°
2026-05-05 15:55 40.66969 0.60910 23960 ft 413 kts 96°
2026-05-05 15:55 40.66929 0.64681 23723 ft 411 kts 96°
2026-05-05 15:55 40.66890 0.68428 23491 ft 408 kts 96°
2026-05-05 15:56 40.66858 0.72158 23275 ft 407 kts 94°
2026-05-05 15:56 40.67262 0.75858 22961 ft 411 kts 74°
2026-05-05 15:56 40.68248 0.79397 22595 ft 411 kts 72°
2026-05-05 15:56 40.69143 0.82968 22241 ft 409 kts 75°
2026-05-05 15:57 40.69939 0.86547 21883 ft 406 kts 77°
2026-05-05 15:57 40.70693 0.90113 21538 ft 402 kts 77°
2026-05-05 15:57 40.71443 0.93656 21186 ft 399 kts 76°
2026-05-05 15:57 40.72206 0.97164 20837 ft 397 kts 76°
2026-05-05 15:58 40.72982 1.00637 20499 ft 394 kts 75°
2026-05-05 15:58 40.73771 1.04085 20156 ft 391 kts 75°
2026-05-05 15:58 40.74564 1.07502 19812 ft 388 kts 75°
2026-05-05 15:58 40.75353 1.10891 19473 ft 386 kts 75°
2026-05-05 15:59 40.76134 1.14264 19142 ft 383 kts 75°
2026-05-05 15:59 40.76908 1.17620 18809 ft 382 kts 75°
2026-05-05 15:59 40.77678 1.20969 18479 ft 381 kts 75°
2026-05-05 15:59 40.78440 1.24306 18141 ft 379 kts 75°
2026-05-05 16:00 40.79194 1.27625 17784 ft 376 kts 75°
2026-05-05 16:00 40.79941 1.30916 17466 ft 373 kts 75°
2026-05-05 16:00 40.80680 1.34181 17144 ft 370 kts 75°
2026-05-05 16:00 40.81412 1.37415 16831 ft 367 kts 75°
2026-05-05 16:01 40.82140 1.40627 16508 ft 364 kts 75°
2026-05-05 16:01 40.82861 1.43811 16198 ft 360 kts 75°
2026-05-05 16:01 40.83572 1.46971 15877 ft 357 kts 75°
2026-05-05 16:01 40.84277 1.50104 15570 ft 355 kts 75°
2026-05-05 16:02 40.84976 1.53214 15239 ft 352 kts 75°
2026-05-05 16:02 40.85671 1.56297 14957 ft 349 kts 75°
2026-05-05 16:02 40.86358 1.59362 14661 ft 347 kts 75°
2026-05-05 16:02 40.87034 1.62407 14358 ft 344 kts 77°
2026-05-05 16:03 40.87459 1.65489 14061 ft 339 kts 84°
2026-05-05 16:03 40.87788 1.68560 13761 ft 337 kts 84°
2026-05-05 16:03 40.88119 1.71610 13443 ft 334 kts 84°
2026-05-05 16:03 40.88446 1.74636 13149 ft 332 kts 84°
2026-05-05 16:04 40.88770 1.77646 12859 ft 330 kts 84°
2026-05-05 16:04 40.89089 1.80635 12572 ft 328 kts 84°
2026-05-05 16:04 40.89405 1.83613 12291 ft 326 kts 84°
2026-05-05 16:04 40.89719 1.86560 12006 ft 323 kts 84°
2026-05-05 16:05 40.90029 1.89479 11717 ft 319 kts 84°
2026-05-05 16:05 40.90336 1.92380 11433 ft 318 kts 84°
2026-05-05 16:05 40.90818 1.95231 11176 ft 320 kts 69°
2026-05-05 16:05 40.91985 1.97713 10929 ft 319 kts 46°
2026-05-05 16:06 40.93609 1.99697 10684 ft 317 kts 40°
2026-05-05 16:06 40.95256 2.01632 10442 ft 316 kts 40°
2026-05-05 16:06 40.96895 2.03555 10197 ft 314 kts 40°
2026-05-05 16:06 40.98524 2.05470 9980 ft 312 kts 40°
2026-05-05 16:07 41.00143 2.07376 9882 ft 310 kts 40°
2026-05-05 16:07 41.01735 2.09251 9899 ft 311 kts 40°
2026-05-05 16:07 41.03372 2.11177 9817 ft 311 kts 40°
2026-05-05 16:07 41.04983 2.13075 9691 ft 310 kts 40°
2026-05-05 16:08 41.06570 2.14945 9561 ft 309 kts 40°
2026-05-05 16:08 41.08177 2.16826 9428 ft 308 kts 38°
2026-05-05 16:08 41.09924 2.18445 9300 ft 306 kts 32°
2026-05-05 16:08 41.11701 2.19996 9172 ft 305 kts 31°
2026-05-05 16:09 41.13472 2.21522 9045 ft 303 kts 31°
2026-05-05 16:09 41.15235 2.23041 8914 ft 302 kts 31°
2026-05-05 16:09 41.16991 2.24559 8786 ft 301 kts 31°
2026-05-05 16:09 41.18744 2.26076 8658 ft 300 kts 32°
2026-05-05 16:10 41.20491 2.27591 8529 ft 300 kts 32°
2026-05-05 16:10 41.22233 2.29105 8390 ft 299 kts 32°
2026-05-05 16:10 41.23985 2.30625 8262 ft 303 kts 32°
2026-05-05 16:10 41.25750 2.32158 8131 ft 303 kts 32°
2026-05-05 16:11 41.27513 2.33691 8017 ft 303 kts 32°
2026-05-05 16:11 41.32412 2.38850 7633 ft 300 kts 54°
2026-05-05 16:12 41.33482 2.41215 7504 ft 298 kts 66°
2026-05-05 16:12 41.35182 2.46224 7256 ft 296 kts 67°
2026-05-05 16:13 41.37726 2.53656 6886 ft 294 kts 66°
2026-05-05 16:13 41.38564 2.56105 6745 ft 285 kts 66°
2026-05-05 16:13 41.39370 2.58455 6634 ft 272 kts 66°
2026-05-05 16:14 41.40875 2.62912 6391 ft 265 kts 67°
2026-05-05 16:14 41.42569 2.67304 6120 ft 265 kts 47°
2026-05-05 16:15 41.45715 2.69266 6000 ft 252 kts 357°
2026-05-05 16:15 41.48819 2.67648 5895 ft 240 kts 311°
2026-05-05 16:16 41.50129 2.63780 5791 ft 230 kts 269°
2026-05-05 16:16 41.49235 2.59809 5689 ft 226 kts 240°
2026-05-05 16:17 41.47735 2.56128 5330 ft 225 kts 241°
2026-05-05 16:17 41.46991 2.54296 4959 ft 225 kts 241°
2026-05-05 16:18 41.45506 2.50638 4229 ft 224 kts 241°
2026-05-05 16:18 41.44774 2.48832 4086 ft 223 kts 241°
2026-05-05 16:18 41.43289 2.45188 3835 ft 224 kts 241°
2026-05-05 16:19 41.42546 2.43366 3711 ft 224 kts 241°
2026-05-05 16:19 41.41804 2.41549 3586 ft 224 kts 241°
2026-05-05 16:19 41.40314 2.37907 3338 ft 224 kts 240°
2026-05-05 16:20 41.38745 2.34347 3105 ft 222 kts 244°
2026-05-05 16:20 41.37519 2.30777 3024 ft 198 kts 245°
2026-05-05 16:21 41.36431 2.27572 2783 ft 181 kts 245°
2026-05-05 16:22 41.34938 2.23178 2119 ft 161 kts 243°
2026-05-05 16:22 41.34022 2.20488 1702 ft 159 kts 244°
2026-05-05 16:23 41.33110 2.17812 1281 ft 156 kts 242°
2026-05-05 16:23 41.32683 2.16560 1074 ft 143 kts 245°
2026-05-05 16:23 41.31910 2.14283 710 ft 133 kts 242°
2026-05-05 16:24 41.31515 2.13153 506 ft 135 kts 244°
2026-05-05 16:24 41.31126 2.12016 318 ft 136 kts 244°
2026-05-05 16:24 41.30368 2.09767 20 ft 125 kts 243°
2026-05-05 16:25 41.30069 2.08904 19 ft 78 kts 246°
2026-05-05 16:25 41.29775 2.08255 19 ft 27 kts 211°
2026-05-05 16:25 41.29689 2.08191 19 ft 7 kts 187°
2026-05-05 16:26 41.29671 2.08197 16 ft 1 kts 158°
2026-05-05 16:26 41.29620 2.08138 17 ft 11 kts 247°
2026-05-05 16:27 41.29596 2.08063 17 ft 10 kts 245°
2026-05-05 16:27 41.29571 2.07997 17 ft 7 kts 242°
2026-05-05 16:27 41.29554 2.07957 17 ft 4 kts 239°
2026-05-05 16:27 41.29534 2.07903 17 ft 10 kts 250°
2026-05-05 16:28 41.29520 2.07832 19 ft 2 kts 249°
2026-05-05 16:28 41.29516 2.07820 17 ft 3 kts 243°
2026-05-05 16:28 41.29507 2.07806 17 ft 3 kts 220°
2026-05-05 16:28 41.29472 2.07813 16 ft 8 kts 158°
2026-05-05 16:29 41.29420 2.07848 16 ft 8 kts 158°
2026-05-05 16:29 41.29363 2.07878 17 ft 9 kts 157°
2026-05-05 16:29 41.29312 2.07910 18 ft 9 kts 153°
2026-05-05 16:29 41.29263 2.07945 19 ft 7 kts 144°
2026-05-05 16:30 41.29226 2.07987 19 ft 8 kts 157°
2026-05-05 16:30 41.29190 2.08007 19 ft 2 kts 156°
2026-05-05 16:30 41.29175 2.08016 19 ft 2 kts 156°
2026-05-05 16:30 41.29173 2.08018 19 ft 0 kts 156°